CEB453 RPLL-RPVI

Flight info

Callsign CEB453
Flight time 0h 55m
Altitude 31000
Route RPLL 06 BUCA2R BUCAL M646 OLRAX W3 BEDER BEDE1N RPVI IDNAN R02
Aircraft A330/M-V/N

Departure

Time 2026-05-05 06:16
Airport Ninoy Aquino International Airport (RPLL)

Arrival

Time 2026-05-05 07:12
Airport Iloilo International Airport (RPVI)
Time Latitude Longitude Altitude Speed Heading
2026-05-05 05:48 14.51937 121.01219 92 ft 0 kts 46°
2026-05-05 05:56 14.51933 121.01215 92 ft 2 kts 46°
2026-05-05 05:56 14.51927 121.01208 92 ft 2 kts 47°
2026-05-05 05:56 14.51915 121.01192 92 ft 2 kts 64°
2026-05-05 05:57 14.51909 121.01176 92 ft 2 kts 75°
2026-05-05 05:57 14.51906 121.01161 92 ft 2 kts 85°
2026-05-05 05:57 14.51906 121.01146 92 ft 2 kts 96°
2026-05-05 05:57 14.51909 121.01131 92 ft 2 kts 107°
2026-05-05 05:58 14.51914 121.01116 92 ft 2 kts 117°
2026-05-05 05:58 14.51922 121.01102 92 ft 2 kts 128°
2026-05-05 05:58 14.51928 121.01095 92 ft 1 kts 135°
2026-05-05 05:58 14.51929 121.01094 92 ft 0 kts 135°
2026-05-05 06:02 14.51928 121.01095 92 ft 1 kts 134°
2026-05-05 06:02 14.51905 121.01121 92 ft 8 kts 131°
2026-05-05 06:03 14.51860 121.01172 92 ft 9 kts 134°
2026-05-05 06:03 14.51812 121.01222 92 ft 10 kts 134°
2026-05-05 06:03 14.51767 121.01269 92 ft 5 kts 134°
2026-05-05 06:03 14.51738 121.01299 92 ft 6 kts 136°
2026-05-05 06:04 14.51712 121.01315 92 ft 6 kts 161°
2026-05-05 06:04 14.51658 121.01313 92 ft 9 kts 179°
2026-05-05 06:04 14.51602 121.01340 92 ft 9 kts 145°
2026-05-05 06:04 14.51556 121.01382 92 ft 9 kts 135°
2026-05-05 06:05 14.51508 121.01432 92 ft 10 kts 134°
2026-05-05 06:05 14.51453 121.01489 92 ft 11 kts 134°
2026-05-05 06:05 14.51434 121.01509 92 ft 11 kts 135°
2026-05-05 06:05 14.51374 121.01570 92 ft 12 kts 135°
2026-05-05 06:06 14.51269 121.01680 92 ft 13 kts 135°
2026-05-05 06:06 14.51202 121.01749 92 ft 13 kts 135°
2026-05-05 06:06 14.51134 121.01820 92 ft 14 kts 134°
2026-05-05 06:06 14.51094 121.01862 92 ft 5 kts 136°
2026-05-05 06:07 14.51071 121.01884 92 ft 3 kts 136°
2026-05-05 06:07 14.51065 121.01891 92 ft 1 kts 136°
2026-05-05 06:07 14.51041 121.01910 92 ft 0 kts 153°
2026-05-05 06:08 14.51039 121.01910 92 ft 0 kts 160°
2026-05-05 06:08 14.51010 121.01912 92 ft 6 kts 189°
2026-05-05 06:08 14.50983 121.01883 92 ft 8 kts 237°
2026-05-05 06:09 14.50946 121.01819 92 ft 12 kts 240°
2026-05-05 06:09 14.50901 121.01737 92 ft 13 kts 239°
2026-05-05 06:09 14.50854 121.01653 92 ft 14 kts 240°
2026-05-05 06:09 14.50821 121.01594 92 ft 14 kts 240°
2026-05-05 06:10 14.50753 121.01469 92 ft 15 kts 240°
2026-05-05 06:10 14.50698 121.01371 92 ft 16 kts 240°
2026-05-05 06:10 14.50642 121.01270 92 ft 16 kts 240°
2026-05-05 06:10 14.50583 121.01165 92 ft 17 kts 240°
2026-05-05 06:11 14.50524 121.01059 92 ft 17 kts 240°
2026-05-05 06:11 14.50462 121.00948 92 ft 17 kts 239°
2026-05-05 06:11 14.50400 121.00836 92 ft 18 kts 240°
2026-05-05 06:11 14.50338 121.00723 92 ft 18 kts 241°
2026-05-05 06:12 14.50275 121.00608 92 ft 18 kts 239°
2026-05-05 06:12 14.50231 121.00531 92 ft 18 kts 239°
2026-05-05 06:12 14.50081 121.00262 92 ft 19 kts 240°
2026-05-05 06:13 14.50015 121.00143 92 ft 19 kts 240°
2026-05-05 06:13 14.49953 121.00030 92 ft 8 kts 240°
2026-05-05 06:13 14.49933 120.99996 92 ft 6 kts 239°
2026-05-05 06:13 14.49902 120.99972 92 ft 6 kts 190°
2026-05-05 06:14 14.49859 120.99979 92 ft 7 kts 161°
2026-05-05 06:14 14.49827 120.99993 92 ft 8 kts 153°
2026-05-05 06:14 14.49810 121.00053 92 ft 8 kts 66°
2026-05-05 06:14 14.49837 121.00108 92 ft 9 kts 61°
2026-05-05 06:15 14.49876 121.00179 92 ft 14 kts 61°
2026-05-05 06:15 14.50002 121.00407 92 ft 66 kts 60°
2026-05-05 06:15 14.50328 121.00996 93 ft 122 kts 60°
2026-05-05 06:15 14.50832 121.01906 98 ft 167 kts 63°
2026-05-05 06:16 14.51404 121.02968 608 ft 169 kts 62°
2026-05-05 06:16 14.51973 121.03990 1232 ft 168 kts 62°
2026-05-05 06:16 14.52559 121.05044 1833 ft 170 kts 61°
2026-05-05 06:16 14.53160 121.06113 2217 ft 182 kts 60°
2026-05-05 06:17 14.53590 121.06878 2379 ft 190 kts 62°
2026-05-05 06:17 14.54465 121.08463 2690 ft 205 kts 61°
2026-05-05 06:17 14.55193 121.09781 2931 ft 219 kts 61°
2026-05-05 06:17 14.55941 121.11171 3188 ft 232 kts 65°
2026-05-05 06:18 14.56323 121.12796 3436 ft 246 kts 90°
2026-05-05 06:18 14.55937 121.14530 3864 ft 254 kts 116°
2026-05-05 06:18 14.54852 121.15981 4361 ft 260 kts 131°
2026-05-05 06:18 14.53535 121.17345 4664 ft 275 kts 133°
2026-05-05 06:19 14.52156 121.18735 5143 ft 283 kts 133°
2026-05-05 06:19 14.50765 121.20146 5820 ft 282 kts 133°
2026-05-05 06:19 14.49383 121.21561 6465 ft 283 kts 132°
2026-05-05 06:19 14.47930 121.22973 6933 ft 293 kts 143°
2026-05-05 06:20 14.46054 121.23789 7451 ft 302 kts 172°
2026-05-05 06:20 14.43994 121.23636 8022 ft 304 kts 199°
2026-05-05 06:20 14.42193 121.22511 8610 ft 303 kts 226°
2026-05-05 06:20 14.41235 121.21458 9045 ft 303 kts 231°
2026-05-05 06:21 14.39424 121.19273 9957 ft 302 kts 232°
2026-05-05 06:21 14.38061 121.17628 10527 ft 306 kts 232°
2026-05-05 06:21 14.36651 121.15958 10796 ft 321 kts 231°
2026-05-05 06:21 14.35117 121.14198 11066 ft 336 kts 227°
2026-05-05 06:22 14.33305 121.12645 11498 ft 347 kts 218°
2026-05-05 06:22 14.31342 121.11222 12112 ft 350 kts 217°
2026-05-05 06:22 14.29337 121.09794 12764 ft 351 kts 217°
2026-05-05 06:22 14.27347 121.08358 13321 ft 355 kts 217°
2026-05-05 06:23 14.25311 121.06869 13882 ft 360 kts 218°
2026-05-05 06:23 14.23291 121.05376 14450 ft 363 kts 218°
2026-05-05 06:23 14.21223 121.03841 15029 ft 367 kts 218°
2026-05-05 06:23 14.19145 121.02292 15607 ft 371 kts 218°
2026-05-05 06:24 14.17058 121.00735 16184 ft 374 kts 218°
2026-05-05 06:24 14.14966 120.99172 16758 ft 378 kts 217°
2026-05-05 06:24 14.12823 120.97571 17344 ft 381 kts 217°
2026-05-05 06:24 14.10675 120.95966 17925 ft 384 kts 217°
2026-05-05 06:25 14.08507 120.94346 18502 ft 388 kts 217°
2026-05-05 06:25 14.06339 120.92726 19068 ft 391 kts 217°
2026-05-05 06:25 14.04105 120.91058 19638 ft 395 kts 217°
2026-05-05 06:25 14.01891 120.89404 20192 ft 398 kts 217°
2026-05-05 06:26 13.99651 120.87733 20737 ft 402 kts 217°
2026-05-05 06:26 13.97375 120.86034 21273 ft 405 kts 217°
2026-05-05 06:26 13.95090 120.84328 21852 ft 407 kts 217°
2026-05-05 06:26 13.92833 120.82644 22398 ft 409 kts 217°
2026-05-05 06:27 13.90498 120.80902 22917 ft 413 kts 217°
2026-05-05 06:27 13.85893 120.77469 23893 ft 419 kts 217°
2026-05-05 06:27 13.83548 120.75722 24381 ft 422 kts 216°
2026-05-05 06:28 13.81195 120.73969 24848 ft 424 kts 216°
2026-05-05 06:28 13.78831 120.72208 25299 ft 427 kts 216°
2026-05-05 06:28 13.76451 120.70436 25738 ft 430 kts 216°
2026-05-05 06:28 13.74043 120.68643 26177 ft 433 kts 216°
2026-05-05 06:29 13.71638 120.66853 26598 ft 435 kts 216°
2026-05-05 06:29 13.69200 120.65040 27013 ft 438 kts 216°
2026-05-05 06:29 13.66757 120.63223 27419 ft 440 kts 216°
2026-05-05 06:29 13.64284 120.61384 27820 ft 442 kts 216°
2026-05-05 06:30 13.61751 120.59592 28207 ft 445 kts 213°
2026-05-05 06:30 13.59097 120.57938 28584 ft 447 kts 209°
2026-05-05 06:30 13.56369 120.56458 28949 ft 449 kts 206°
2026-05-05 06:30 13.53552 120.55087 29309 ft 452 kts 205°
2026-05-05 06:31 13.51662 120.54185 29548 ft 453 kts 205°
2026-05-05 06:31 13.47831 120.52363 30027 ft 456 kts 205°
2026-05-05 06:31 13.44961 120.50990 30370 ft 458 kts 205°
2026-05-05 06:31 13.42132 120.49631 30700 ft 460 kts 205°
2026-05-05 06:32 13.39207 120.48274 30848 ft 461 kts 200°
2026-05-05 06:32 13.33021 120.47014 30852 ft 458 kts 180°
2026-05-05 06:33 13.26794 120.48022 30853 ft 456 kts 160°
2026-05-05 06:33 13.21216 120.50978 30855 ft 455 kts 147°
2026-05-05 06:34 13.15890 120.54392 30853 ft 455 kts 147°
2026-05-05 06:34 13.10542 120.57790 30853 ft 455 kts 147°
2026-05-05 06:35 13.05142 120.61184 30851 ft 458 kts 148°
2026-05-05 06:35 12.99737 120.64574 30851 ft 462 kts 148°
2026-05-05 06:36 12.94223 120.68028 30852 ft 466 kts 149°
2026-05-05 06:36 12.89444 120.71009 30852 ft 466 kts 149°
2026-05-05 06:37 12.80443 120.76633 30853 ft 466 kts 149°
2026-05-05 06:38 12.73716 120.80833 30853 ft 466 kts 149°
2026-05-05 06:38 12.67944 120.84436 30855 ft 466 kts 149°
2026-05-05 06:39 12.62427 120.87878 30860 ft 466 kts 149°
2026-05-05 06:39 12.56930 120.91305 30866 ft 466 kts 149°
2026-05-05 06:40 12.51415 120.94741 30871 ft 466 kts 149°
2026-05-05 06:40 12.45931 120.98152 30889 ft 454 kts 149°
2026-05-05 06:41 12.40630 121.01451 30933 ft 447 kts 148°
2026-05-05 06:41 12.35540 121.05064 30963 ft 446 kts 142°
2026-05-05 06:42 12.30881 121.09204 30982 ft 446 kts 137°
2026-05-05 06:42 12.26386 121.13523 30990 ft 446 kts 136°
2026-05-05 06:43 12.21850 121.17880 30994 ft 445 kts 137°
2026-05-05 06:43 12.17361 121.22178 30996 ft 445 kts 137°
2026-05-05 06:44 12.12854 121.26489 30745 ft 445 kts 137°
2026-05-05 06:44 12.10602 121.28640 29890 ft 453 kts 137°
2026-05-05 06:44 12.08278 121.30859 29027 ft 459 kts 137°
2026-05-05 06:44 12.05957 121.33076 28477 ft 457 kts 137°
2026-05-05 06:45 12.03674 121.35255 28087 ft 451 kts 137°
2026-05-05 06:45 12.01405 121.37421 27655 ft 447 kts 137°
2026-05-05 06:45 11.99141 121.39580 27180 ft 444 kts 137°
2026-05-05 06:45 11.96909 121.41711 26705 ft 441 kts 137°
2026-05-05 06:46 11.94680 121.43835 26230 ft 438 kts 137°
2026-05-05 06:46 11.92476 121.45938 25689 ft 436 kts 137°
2026-05-05 06:46 11.90247 121.48063 25223 ft 433 kts 137°
2026-05-05 06:46 11.88788 121.49454 24947 ft 430 kts 137°
2026-05-05 06:47 11.83413 121.54573 23970 ft 419 kts 137°
2026-05-05 06:47 11.81289 121.56596 23588 ft 414 kts 137°
2026-05-05 06:47 11.79213 121.58572 23211 ft 410 kts 137°
2026-05-05 06:48 11.77127 121.60558 22833 ft 406 kts 137°
2026-05-05 06:48 11.75090 121.62498 22462 ft 402 kts 137°
2026-05-05 06:48 11.73053 121.64436 22090 ft 399 kts 137°
2026-05-05 06:48 11.71046 121.66345 21719 ft 395 kts 137°
2026-05-05 06:49 11.69030 121.68263 21346 ft 392 kts 137°
2026-05-05 06:49 11.67114 121.70085 20995 ft 389 kts 137°
2026-05-05 06:49 11.65403 121.71712 20681 ft 386 kts 137°
2026-05-05 06:50 11.61679 121.75250 19993 ft 380 kts 137°
2026-05-05 06:50 11.59757 121.77076 19635 ft 377 kts 137°
2026-05-05 06:50 11.57862 121.78876 19281 ft 375 kts 137°
2026-05-05 06:50 11.55965 121.80678 18925 ft 372 kts 137°
2026-05-05 06:51 11.54078 121.82470 18570 ft 369 kts 137°
2026-05-05 06:51 11.52255 121.84200 18223 ft 367 kts 137°
2026-05-05 06:51 11.50390 121.85971 17869 ft 365 kts 137°
2026-05-05 06:51 11.48576 121.87692 17529 ft 362 kts 137°
2026-05-05 06:52 11.46767 121.89409 17187 ft 360 kts 137°
2026-05-05 06:52 11.45014 121.91072 16853 ft 358 kts 137°
2026-05-05 06:52 11.43267 121.92729 16520 ft 356 kts 137°
2026-05-05 06:52 11.41482 121.94423 16180 ft 353 kts 137°
2026-05-05 06:53 11.39723 121.96091 15842 ft 351 kts 137°
2026-05-05 06:53 11.37979 121.97745 15508 ft 349 kts 137°
2026-05-05 06:53 11.36204 121.99428 15164 ft 347 kts 137°
2026-05-05 06:53 11.34467 122.01074 14825 ft 345 kts 137°
2026-05-05 06:54 11.33355 122.02129 14613 ft 344 kts 137°
2026-05-05 06:54 11.31049 122.04314 14170 ft 342 kts 137°
2026-05-05 06:54 11.29357 122.05916 13841 ft 340 kts 137°
2026-05-05 06:54 11.27662 122.07522 13512 ft 338 kts 137°
2026-05-05 06:55 11.25993 122.09103 13188 ft 336 kts 137°
2026-05-05 06:55 11.24326 122.10681 12862 ft 334 kts 137°
2026-05-05 06:55 11.22714 122.12207 12548 ft 333 kts 137°
2026-05-05 06:55 11.21040 122.13792 12221 ft 331 kts 137°
2026-05-05 06:56 11.19392 122.15352 11895 ft 330 kts 137°
2026-05-05 06:56 11.17738 122.16917 11573 ft 327 kts 137°
2026-05-05 06:56 11.16080 122.18487 11253 ft 325 kts 137°
2026-05-05 06:56 11.14501 122.19981 10943 ft 323 kts 137°
2026-05-05 06:57 11.12952 122.21446 10637 ft 321 kts 137°
2026-05-05 06:57 11.11470 122.22849 10344 ft 319 kts 137°
2026-05-05 06:57 11.09877 122.24356 10234 ft 310 kts 137°
2026-05-05 06:57 11.08362 122.25787 10221 ft 298 kts 137°
2026-05-05 06:58 11.06887 122.27181 10209 ft 287 kts 137°
2026-05-05 06:58 11.05455 122.28533 10119 ft 279 kts 137°
2026-05-05 06:58 11.04026 122.29875 9834 ft 279 kts 137°
2026-05-05 06:58 11.02613 122.31200 9563 ft 278 kts 137°
2026-05-05 06:59 11.01198 122.32526 9299 ft 278 kts 137°
2026-05-05 06:59 11.00259 122.33408 9127 ft 277 kts 137°
2026-05-05 06:59 10.97104 122.36367 8549 ft 275 kts 137°
2026-05-05 07:00 10.95705 122.37680 8294 ft 274 kts 137°
2026-05-05 07:00 10.94193 122.38864 8044 ft 272 kts 155°
2026-05-05 07:00 10.92399 122.39259 7922 ft 265 kts 182°
2026-05-05 07:00 10.90582 122.38915 7610 ft 267 kts 194°
2026-05-05 07:01 10.88939 122.38454 7334 ft 268 kts 195°
2026-05-05 07:01 10.87481 122.38032 7098 ft 269 kts 195°
2026-05-05 07:01 10.85717 122.37528 6820 ft 269 kts 195°
2026-05-05 07:01 10.83735 122.36974 6515 ft 270 kts 195°
2026-05-05 07:02 10.82543 122.36646 6334 ft 270 kts 195°
2026-05-05 07:02 10.80122 122.35985 5965 ft 270 kts 195°
2026-05-05 07:02 10.78321 122.35496 5692 ft 270 kts 195°
2026-05-05 07:02 10.76500 122.35002 5416 ft 271 kts 195°
2026-05-05 07:03 10.74681 122.34510 5141 ft 270 kts 195°
2026-05-05 07:03 10.72889 122.34026 4825 ft 259 kts 195°
2026-05-05 07:03 10.71206 122.33570 4583 ft 244 kts 195°
2026-05-05 07:03 10.69608 122.33138 4350 ft 232 kts 195°
2026-05-05 07:04 10.68081 122.32880 4106 ft 222 kts 175°
2026-05-05 07:04 10.66638 122.33326 3900 ft 216 kts 147°
2026-05-05 07:04 10.65602 122.34380 3679 ft 212 kts 120°
2026-05-05 07:04 10.65019 122.35738 3484 ft 207 kts 110°
2026-05-05 07:05 10.64550 122.37112 3292 ft 203 kts 108°
2026-05-05 07:05 10.64105 122.38438 3113 ft 197 kts 109°
2026-05-05 07:05 10.63699 122.39750 2919 ft 192 kts 98°
2026-05-05 07:05 10.63787 122.41072 2710 ft 188 kts 71°
2026-05-05 07:06 10.64511 122.42124 2537 ft 181 kts 38°
2026-05-05 07:06 10.65571 122.42761 2515 ft 171 kts 24°
2026-05-05 07:06 10.66627 122.43194 2498 ft 155 kts 20°
2026-05-05 07:06 10.67291 122.43435 2488 ft 150 kts 19°
2026-05-05 07:07 10.68584 122.43893 2507 ft 149 kts 19°
2026-05-05 07:07 10.69568 122.44248 2513 ft 149 kts 19°
2026-05-05 07:07 10.70537 122.44601 2515 ft 149 kts 20°
2026-05-05 07:07 10.71517 122.44965 2420 ft 149 kts 20°
2026-05-05 07:08 10.72478 122.45322 2207 ft 148 kts 20°
2026-05-05 07:08 10.73458 122.45687 2005 ft 148 kts 20°
2026-05-05 07:08 10.74415 122.46043 1811 ft 147 kts 20°
2026-05-05 07:08 10.75058 122.46281 1681 ft 147 kts 20°
2026-05-05 07:09 10.76337 122.46755 1422 ft 147 kts 20°
2026-05-05 07:09 10.76971 122.46989 1293 ft 146 kts 20°
2026-05-05 07:10 10.80230 122.48196 631 ft 145 kts 19°
2026-05-05 07:10 10.81189 122.48551 433 ft 145 kts 20°
2026-05-05 07:10 10.82137 122.48908 240 ft 144 kts 20°
2026-05-05 07:10 10.83019 122.49231 184 ft 111 kts 19°
2026-05-05 07:11 10.83380 122.49365 184 ft 59 kts 20°
2026-05-05 07:12 10.84019 122.49602 183 ft 19 kts 19°
2026-05-05 07:12 10.84139 122.49645 183 ft 15 kts 19°
2026-05-05 07:12 10.84201 122.49665 183 ft 8 kts 15°
2026-05-05 07:12 10.84262 122.49680 183 ft 9 kts 13°
2026-05-05 07:13 10.84305 122.49693 183 ft 8 kts 17°
2026-05-05 07:13 10.84336 122.49721 183 ft 3 kts 106°
2026-05-05 07:13 10.84309 122.49719 183 ft 5 kts 205°
2026-05-05 07:13 10.84254 122.49690 183 ft 7 kts 202°
2026-05-05 07:14 10.84198 122.49668 183 ft 9 kts 200°
2026-05-05 07:14 10.84132 122.49644 183 ft 10 kts 200°
2026-05-05 07:14 10.84058 122.49616 183 ft 11 kts 199°
2026-05-05 07:14 10.83976 122.49586 183 ft 12 kts 200°
2026-05-05 07:15 10.83919 122.49565 183 ft 13 kts 200°
2026-05-05 07:15 10.83798 122.49520 183 ft 14 kts 200°
2026-05-05 07:15 10.83717 122.49490 183 ft 9 kts 199°
2026-05-05 07:15 10.83669 122.49473 183 ft 7 kts 200°
2026-05-05 07:16 10.83620 122.49455 183 ft 7 kts 200°
2026-05-05 07:16 10.83579 122.49458 183 ft 4 kts 144°
2026-05-05 07:16 10.83561 122.49483 183 ft 4 kts 119°
2026-05-05 07:16 10.83543 122.49522 183 ft 7 kts 113°
2026-05-05 07:17 10.83529 122.49560 183 ft 9 kts 111°
2026-05-05 07:17 10.83503 122.49629 183 ft 6 kts 112°
2026-05-05 07:17 10.83485 122.49654 183 ft 7 kts 139°
2026-05-05 07:17 10.83435 122.49669 183 ft 7 kts 180°
2026-05-05 07:18 10.83364 122.49651 183 ft 7 kts 199°
2026-05-05 07:18 10.83313 122.49632 183 ft 7 kts 200°
2026-05-05 07:18 10.83260 122.49612 183 ft 8 kts 201°
2026-05-05 07:18 10.83213 122.49594 183 ft 5 kts 199°
2026-05-05 07:19 10.83189 122.49586 183 ft 5 kts 199°
2026-05-05 07:19 10.83161 122.49577 183 ft 3 kts 189°
2026-05-05 07:19 10.83149 122.49582 183 ft 1 kts 137°
2026-05-05 07:19 10.83137 122.49598 183 ft 3 kts 123°
2026-05-05 07:20 10.83131 122.49608 183 ft 1 kts 117°
2026-05-05 07:20 10.83124 122.49623 183 ft 2 kts 113°
2026-05-05 07:20 10.83118 122.49639 183 ft 2 kts 112°
2026-05-05 07:20 10.83117 122.49641 183 ft 0 kts 112°